GEFSMW_prec_meanprecacc_006.txt.gz
Total_Precipitation_Accumulation
0.00 0.00 0.00 0.00 0.00 0.00 0.00 0.00 0.00 0.00 0.00 0.01 0.02 0.01 0.00 0.00 0.00 0.00 0.00 0.00 0.00 0.00 0.00 0.00 0.00 0.00 0.00 0.00 0.00 0.00 0.00 0.00 0.00 0.00 0.00 0.00 0.00 0.00 0.00 0.00 0.00 0.00 0.00
0.00 0.01 0.01 0.01 0.00 0.00 0.00 0.00 0.00 0.00 0.01 0.02 0.02 0.01 0.00 0.00 0.00 0.00 0.00 0.00 0.00 0.00 0.00 0.00 0.00 0.00 0.00 0.00 0.00 0.00 0.00 0.00 0.00 0.00 0.00 0.00 0.00 0.00 0.00 0.00 0.00 0.00 0.00
0.00 0.00 0.01 0.01 0.00 0.00 0.01 0.01 0.01 0.02 0.03 0.02 0.01 0.01 0.01 0.00 0.00 0.00 0.00 0.00 0.00 0.00 0.00 0.00 0.00 0.00 0.00 0.00 0.00 0.00 0.00 0.00 0.00 0.00 0.00 0.00 0.00 0.00 0.00 0.00 0.00 0.00 0.00
0.00 0.00 0.02 0.03 0.01 0.01 0.01 0.03 0.04 0.04 0.03 0.02 0.02 0.02 0.02 0.01 0.02 0.01 0.00 0.00 0.00 0.00 0.00 0.00 0.00 0.00 0.00 0.00 0.00 0.00 0.00 0.00 0.00 0.00 0.00 0.00 0.00 0.00 0.00 0.00 0.00 0.00 0.00
0.00 0.01 0.03 0.08 0.09 0.06 0.03 0.04 0.04 0.04 0.04 0.05 0.03 0.03 0.04 0.04 0.03 0.01 0.00 0.00 0.00 0.00 0.00 0.00 0.00 0.00 0.00 0.00 0.00 0.00 0.00 0.00 0.00 0.00 0.00 0.00 0.00 0.00 0.00 0.00 0.00 0.00 0.00
0.00 0.01 0.04 0.11 0.16 0.11 0.05 0.05 0.06 0.07 0.08 0.09 0.08 0.07 0.07 0.04 0.02 0.01 0.00 0.00 0.00 0.00 0.00 0.00 0.00 0.00 0.00 0.00 0.00 0.00 0.00 0.00 0.00 0.00 0.00 0.00 0.00 0.00 0.00 0.00 0.00 0.00 0.00
0.01 0.02 0.03 0.06 0.12 0.10 0.06 0.07 0.08 0.09 0.09 0.09 0.08 0.06 0.04 0.02 0.01 0.00 0.00 0.00 0.00 0.00 0.00 0.00 0.00 0.00 0.00 0.00 0.00 0.00 0.00 0.00 0.00 0.00 0.00 0.00 0.00 0.00 0.00 0.00 0.00 0.00 0.00
0.02 0.02 0.02 0.04 0.07 0.07 0.07 0.07 0.05 0.05 0.04 0.04 0.04 0.02 0.01 0.00 0.00 0.00 0.00 0.00 0.00 0.00 0.00 0.00 0.00 0.00 0.00 0.00 0.00 0.00 0.00 0.00 0.00 0.00 0.00 0.00 0.00 0.00 0.00 0.00 0.00 0.00 0.00
0.01 0.02 0.02 0.03 0.03 0.03 0.05 0.07 0.06 0.04 0.03 0.02 0.02 0.01 0.01 0.00 0.00 0.00 0.00 0.00 0.00 0.00 0.00 0.00 0.00 0.00 0.00 0.00 0.00 0.00 0.00 0.00 0.00 0.00 0.00 0.00 0.00 0.00 0.00 0.00 0.00 0.01 0.01
0.01 0.02 0.04 0.03 0.02 0.02 0.05 0.05 0.04 0.03 0.03 0.04 0.03 0.01 0.01 0.00 0.00 0.00 0.00 0.00 0.00 0.00 0.00 0.00 0.00 0.00 0.00 0.00 0.00 0.00 0.00 0.00 0.00 0.00 0.01 0.01 0.01 0.01 0.01 0.02 0.02 0.02 0.02
0.01 0.02 0.03 0.03 0.02 0.02 0.05 0.05 0.04 0.05 0.05 0.03 0.01 0.00 0.00 0.00 0.00 0.00 0.00 0.00 0.00 0.00 0.00 0.00 0.00 0.00 0.00 0.00 0.00 0.00 0.00 0.01 0.01 0.02 0.02 0.03 0.03 0.04 0.04 0.04 0.03 0.02 0.02
0.02 0.02 0.03 0.04 0.02 0.02 0.04 0.05 0.05 0.04 0.02 0.01 0.00 0.00 0.00 0.00 0.00 0.00 0.00 0.00 0.00 0.00 0.00 0.00 0.00 0.00 0.00 0.00 0.00 0.01 0.01 0.02 0.03 0.03 0.04 0.04 0.04 0.05 0.04 0.04 0.03 0.03 0.03
0.02 0.03 0.05 0.06 0.05 0.05 0.04 0.04 0.05 0.03 0.01 0.01 0.00 0.00 0.00 0.00 0.00 0.00 0.00 0.00 0.00 0.00 0.00 0.00 0.00 0.00 0.00 0.00 0.01 0.01 0.01 0.02 0.02 0.02 0.02 0.02 0.02 0.03 0.03 0.03 0.03 0.03 0.02
0.02 0.06 0.12 0.12 0.09 0.05 0.03 0.02 0.02 0.01 0.00 0.00 0.00 0.00 0.00 0.00 0.00 0.00 0.00 0.00 0.00 0.00 0.01 0.01 0.01 0.00 0.00 0.00 0.00 0.00 0.00 0.00 0.01 0.01 0.01 0.01 0.02 0.03 0.03 0.03 0.03 0.03 0.03
0.05 0.13 0.17 0.12 0.06 0.03 0.02 0.01 0.02 0.01 0.00 0.00 0.00 0.00 0.00 0.00 0.00 0.00 0.00 0.00 0.01 0.01 0.01 0.00 0.00 0.00 0.00 0.00 0.00 0.00 0.00 0.00 0.00 0.00 0.00 0.01 0.01 0.02 0.02 0.02 0.02 0.03 0.04
0.07 0.08 0.07 0.05 0.03 0.01 0.01 0.01 0.01 0.01 0.01 0.01 0.01 0.01 0.00 0.00 0.00 0.00 0.00 0.01 0.01 0.00 0.00 0.00 0.00 0.00 0.00 0.00 0.00 0.00 0.00 0.00 0.00 0.01 0.01 0.01 0.01 0.01 0.01 0.02 0.03 0.04 0.05
0.05 0.05 0.04 0.03 0.03 0.03 0.02 0.03 0.03 0.03 0.03 0.03 0.02 0.02 0.01 0.01 0.00 0.00 0.00 0.00 0.00 0.00 0.00 0.00 0.00 0.01 0.00 0.00 0.00 0.00 0.00 0.00 0.01 0.01 0.02 0.01 0.01 0.01 0.01 0.02 0.02 0.02 0.03
0.03 0.04 0.05 0.06 0.05 0.06 0.06 0.08 0.09 0.08 0.07 0.06 0.05 0.04 0.02 0.01 0.00 0.00 0.00 0.00 0.00 0.00 0.00 0.00 0.00 0.01 0.01 0.00 0.00 0.00 0.00 0.00 0.01 0.01 0.02 0.01 0.01 0.01 0.02 0.01 0.01 0.01 0.01
0.05 0.07 0.08 0.08 0.08 0.09 0.13 0.17 0.16 0.12 0.09 0.06 0.04 0.02 0.01 0.00 0.00 0.00 0.00 0.00 0.00 0.00 0.00 0.00 0.00 0.01 0.02 0.00 0.00 0.00 0.00 0.00 0.00 0.01 0.01 0.01 0.02 0.03 0.04 0.02 0.01 0.01 0.01
0.07 0.08 0.09 0.09 0.09 0.10 0.11 0.11 0.08 0.05 0.04 0.02 0.01 0.00 0.00 0.00 0.00 0.00 0.00 0.00 0.00 0.00 0.00 0.00 0.00 0.01 0.02 0.01 0.00 0.00 0.00 0.00 0.00 0.00 0.00 0.02 0.04 0.03 0.02 0.01 0.01 0.01 0.01
0.07 0.06 0.06 0.07 0.09 0.09 0.08 0.06 0.04 0.02 0.01 0.00 0.00 0.00 0.00 0.00 0.00 0.00 0.00 0.00 0.00 0.00 0.00 0.00 0.00 0.01 0.01 0.00 0.00 0.00 0.00 0.00 0.00 0.00 0.01 0.03 0.05 0.03 0.02 0.02 0.01 0.02 0.02
0.04 0.03 0.03 0.04 0.04 0.03 0.02 0.01 0.01 0.00 0.00 0.00 0.00 0.00 0.00 0.00 0.00 0.00 0.00 0.00 0.00 0.00 0.00 0.00 0.00 0.01 0.01 0.01 0.00 0.00 0.00 0.00 0.00 0.01 0.02 0.04 0.05 0.03 0.04 0.04 0.04 0.04 0.07
0.03 0.02 0.02 0.01 0.01 0.01 0.01 0.00 0.00 0.00 0.00 0.00 0.00 0.00 0.00 0.00 0.00 0.00 0.00 0.00 0.00 0.00 0.00 0.00 0.00 0.01 0.01 0.01 0.00 0.00 0.00 0.00 0.01 0.02 0.05 0.07 0.08 0.08 0.08 0.09 0.09 0.10 0.10
0.01 0.01 0.01 0.01 0.01 0.01 0.00 0.00 0.00 0.00 0.00 0.00 0.00 0.00 0.00 0.00 0.00 0.00 0.00 0.00 0.01 0.00 0.00 0.01 0.01 0.01 0.01 0.00 0.00 0.00 0.00 0.00 0.01 0.02 0.05 0.11 0.16 0.18 0.17 0.15 0.13 0.10 0.08
0.01 0.01 0.01 0.01 0.01 0.00 0.00 0.00 0.00 0.00 0.00 0.00 0.00 0.00 0.00 0.00 0.00 0.00 0.00 0.01 0.01 0.00 0.00 0.00 0.00 0.00 0.00 0.01 0.01 0.01 0.00 0.01 0.01 0.02 0.03 0.06 0.11 0.14 0.13 0.11 0.09 0.07 0.05
0.00 0.00 0.00 0.00 0.00 0.00 0.00 0.00 0.00 0.00 0.00 0.00 0.00 0.00 0.00 0.00 0.00 0.00 0.01 0.00 0.00 0.00 0.00 0.00 0.00 0.01 0.02 0.02 0.01 0.01 0.01 0.02 0.02 0.02 0.03 0.06 0.10 0.12 0.10 0.08 0.07 0.05 0.04

GEFSMW_prec_meanprecacc_012.txt.gz
Total_Precipitation_Accumulation
0.01 0.01 0.01 0.01 0.01 0.01 0.01 0.00 0.00 0.01 0.01 0.02 0.02 0.01 0.01 0.01 0.02 0.04 0.05 0.04 0.03 0.02 0.01 0.01 0.00 0.00 0.00 0.00 0.00 0.00 0.00 0.00 0.00 0.00 0.00 0.00 0.00 0.00 0.00 0.00 0.00 0.00 0.00
0.01 0.01 0.03 0.03 0.02 0.02 0.02 0.01 0.01 0.04 0.06 0.05 0.03 0.02 0.02 0.06 0.12 0.16 0.14 0.10 0.09 0.08 0.06 0.04 0.02 0.01 0.00 0.00 0.00 0.00 0.00 0.00 0.00 0.00 0.00 0.00 0.00 0.00 0.00 0.00 0.00 0.00 0.00
0.00 0.01 0.03 0.03 0.02 0.03 0.04 0.03 0.05 0.11 0.15 0.10 0.06 0.07 0.11 0.17 0.22 0.23 0.23 0.20 0.16 0.11 0.06 0.03 0.02 0.01 0.00 0.00 0.00 0.00 0.00 0.00 0.00 0.00 0.00 0.00 0.00 0.00 0.00 0.00 0.00 0.00 0.00
0.00 0.01 0.06 0.07 0.04 0.05 0.05 0.06 0.10 0.15 0.18 0.15 0.13 0.20 0.24 0.26 0.31 0.31 0.28 0.20 0.12 0.07 0.03 0.01 0.00 0.00 0.00 0.00 0.00 0.00 0.00 0.00 0.00 0.00 0.00 0.00 0.00 0.00 0.00 0.00 0.00 0.00 0.00
0.00 0.01 0.08 0.15 0.15 0.12 0.08 0.07 0.11 0.17 0.22 0.26 0.28 0.30 0.36 0.41 0.41 0.35 0.24 0.13 0.06 0.03 0.01 0.00 0.00 0.00 0.00 0.00 0.00 0.00 0.00 0.00 0.00 0.00 0.00 0.00 0.00 0.00 0.00 0.00 0.00 0.00 0.00
0.00 0.02 0.08 0.19 0.23 0.15 0.08 0.09 0.14 0.21 0.25 0.28 0.32 0.39 0.45 0.43 0.38 0.28 0.15 0.07 0.03 0.01 0.00 0.00 0.00 0.00 0.00 0.00 0.00 0.00 0.00 0.00 0.00 0.00 0.00 0.00 0.00 0.00 0.00 0.00 0.00 0.00 0.00
0.01 0.03 0.08 0.16 0.23 0.17 0.13 0.16 0.20 0.21 0.20 0.21 0.28 0.33 0.31 0.25 0.18 0.10 0.05 0.02 0.01 0.00 0.00 0.00 0.00 0.00 0.00 0.00 0.00 0.00 0.00 0.00 0.00 0.00 0.00 0.00 0.00 0.00 0.00 0.00 0.00 0.00 0.00
0.02 0.06 0.14 0.22 0.25 0.24 0.20 0.18 0.14 0.12 0.10 0.11 0.14 0.15 0.12 0.10 0.07 0.03 0.01 0.01 0.00 0.00 0.00 0.00 0.00 0.00 0.00 0.00 0.00 0.00 0.00 0.00 0.00 0.00 0.00 0.00 0.00 0.00 0.00 0.00 0.00 0.00 0.00
0.04 0.10 0.18 0.23 0.24 0.20 0.17 0.15 0.13 0.11 0.09 0.09 0.09 0.09 0.08 0.06 0.03 0.01 0.00 0.00 0.00 0.00 0.00 0.00 0.00 0.00 0.00 0.00 0.00 0.00 0.00 0.00 0.00 0.00 0.00 0.00 0.00 0.00 0.01 0.01 0.01 0.02 0.02
0.07 0.12 0.16 0.17 0.15 0.12 0.12 0.12 0.12 0.10 0.08 0.09 0.08 0.06 0.04 0.02 0.01 0.00 0.00 0.00 0.00 0.00 0.00 0.00 0.00 0.00 0.00 0.00 0.00 0.00 0.00 0.00 0.00 0.00 0.01 0.02 0.01 0.02 0.02 0.02 0.03 0.03 0.03
0.11 0.12 0.12 0.11 0.07 0.06 0.09 0.10 0.09 0.09 0.09 0.08 0.06 0.03 0.02 0.01 0.00 0.00 0.00 0.00 0.00 0.00 0.00 0.00 0.00 0.00 0.00 0.00 0.00 0.00 0.00 0.01 0.02 0.02 0.03 0.03 0.04 0.04 0.04 0.04 0.03 0.02 0.03
0.12 0.09 0.08 0.07 0.04 0.04 0.06 0.07 0.08 0.06 0.05 0.04 0.03 0.02 0.01 0.01 0.00 0.00 0.00 0.00 0.00 0.00 0.00 0.00 0.00 0.00 0.00 0.00 0.01 0.01 0.01 0.02 0.03 0.03 0.04 0.04 0.04 0.05 0.04 0.04 0.03 0.03 0.04
0.14 0.09 0.08 0.07 0.06 0.06 0.06 0.06 0.06 0.05 0.04 0.03 0.02 0.01 0.01 0.01 0.00 0.00 0.00 0.00 0.00 0.00 0.00 0.00 0.00 0.01 0.00 0.00 0.01 0.01 0.01 0.02 0.02 0.02 0.02 0.02 0.02 0.03 0.03 0.03 0.03 0.03 0.02
0.08 0.09 0.14 0.13 0.10 0.06 0.05 0.04 0.04 0.03 0.02 0.01 0.01 0.01 0.00 0.00 0.00 0.00 0.00 0.01 0.01 0.01 0.01 0.01 0.01 0.00 0.00 0.00 0.00 0.00 0.00 0.00 0.01 0.01 0.01 0.01 0.02 0.03 0.03 0.03 0.03 0.03 0.03
0.06 0.14 0.17 0.12 0.07 0.04 0.02 0.02 0.02 0.01 0.01 0.00 0.00 0.01 0.01 0.01 0.01 0.02 0.02 0.03 0.03 0.02 0.01 0.00 0.00 0.00 0.00 0.00 0.00 0.00 0.00 0.00 0.00 0.00 0.01 0.01 0.02 0.03 0.04 0.03 0.03 0.04 0.06
0.08 0.09 0.08 0.06 0.03 0.02 0.01 0.01 0.02 0.02 0.01 0.02 0.02 0.03 0.04 0.05 0.06 0.05 0.03 0.03 0.02 0.00 0.00 0.00 0.00 0.00 0.00 0.00 0.00 0.00 0.00 0.00 0.00 0.01 0.01 0.01 0.01 0.02 0.02 0.03 0.06 0.08 0.09
0.06 0.05 0.04 0.04 0.03 0.03 0.03 0.04 0.05 0.06 0.07 0.09 0.10 0.11 0.11 0.09 0.06 0.03 0.01 0.01 0.00 0.00 0.00 0.00 0.00 0.01 0.00 0.00 0.00 0.00 0.00 0.00 0.01 0.01 0.02 0.01 0.01 0.01 0.02 0.03 0.04 0.04 0.05
0.04 0.04 0.05 0.06 0.06 0.06 0.08 0.11 0.15 0.16 0.17 0.18 0.17 0.14 0.10 0.06 0.03 0.01 0.00 0.00 0.00 0.00 0.00 0.00 0.00 0.01 0.01 0.00 0.00 0.00 0.00 0.00 0.01 0.01 0.02 0.01 0.01 0.02 0.03 0.02 0.01 0.01 0.01
0.05 0.07 0.09 0.08 0.10 0.13 0.19 0.26 0.28 0.25 0.21 0.16 0.11 0.06 0.03 0.01 0.01 0.00 0.00 0.00 0.00 0.00 0.00 0.00 0.00 0.01 0.02 0.00 0.00 0.00 0.00 0.00 0.00 0.01 0.01 0.01 0.02 0.05 0.05 0.03 0.02 0.02 0.01
0.08 0.09 0.10 0.12 0.16 0.19 0.21 0.21 0.18 0.14 0.10 0.06 0.03 0.01 0.00 0.00 0.00 0.00 0.00 0.00 0.00 0.00 0.00 0.00 0.00 0.01 0.02 0.01 0.00 0.00 0.00 0.00 0.00 0.00 0.00 0.02 0.05 0.05 0.03 0.02 0.02 0.04 0.03
0.07 0.07 0.08 0.11 0.14 0.13 0.12 0.09 0.06 0.04 0.02 0.01 0.00 0.00 0.00 0.00 0.00 0.00 0.00 0.00 0.00 0.00 0.00 0.00 0.01 0.01 0.01 0.01 0.00 0.00 0.00 0.00 0.00 0.00 0.01 0.04 0.07 0.04 0.03 0.04 0.04 0.06 0.07
0.05 0.04 0.05 0.06 0.05 0.04 0.03 0.02 0.01 0.00 0.00 0.00 0.00 0.00 0.00 0.00 0.00 0.00 0.00 0.00 0.00 0.00 0.00 0.00 0.00 0.01 0.01 0.01 0.00 0.00 0.00 0.00 0.00 0.01 0.03 0.06 0.08 0.05 0.07 0.07 0.09 0.11 0.14
0.03 0.03 0.03 0.02 0.02 0.01 0.01 0.01 0.00 0.00 0.00 0.00 0.00 0.00 0.00 0.00 0.00 0.00 0.00 0.00 0.00 0.00 0.00 0.00 0.00 0.01 0.01 0.01 0.00 0.00 0.00 0.01 0.01 0.03 0.06 0.10 0.11 0.11 0.12 0.14 0.15 0.16 0.15
0.01 0.01 0.01 0.01 0.02 0.01 0.01 0.00 0.00 0.00 0.00 0.00 0.00 0.00 0.00 0.00 0.00 0.00 0.00 0.00 0.01 0.00 0.00 0.01 0.01 0.01 0.01 0.00 0.00 0.00 0.00 0.01 0.01 0.02 0.06 0.14 0.19 0.21 0.21 0.19 0.17 0.13 0.12
0.01 0.01 0.02 0.02 0.01 0.00 0.00 0.00 0.00 0.00 0.00 0.00 0.00 0.00 0.00 0.00 0.00 0.00 0.00 0.01 0.01 0.00 0.00 0.01 0.00 0.00 0.00 0.01 0.02 0.01 0.01 0.01 0.02 0.02 0.03 0.07 0.13 0.16 0.15 0.14 0.11 0.10 0.08
0.01 0.01 0.01 0.01 0.00 0.00 0.00 0.00 0.00 0.00 0.00 0.00 0.00 0.00 0.00 0.00 0.00 0.01 0.01 0.00 0.00 0.00 0.00 0.00 0.00 0.01 0.02 0.02 0.01 0.01 0.01 0.02 0.03 0.02 0.03 0.07 0.11 0.15 0.13 0.11 0.10 0.09 0.08

GEFSMW_prec_meanprecacc_018.txt.gz
Total_Precipitation_Accumulation
0.01 0.01 0.01 0.01 0.01 0.01 0.01 0.01 0.01 0.03 0.04 0.07 0.11 0.15 0.18 0.19 0.18 0.19 0.22 0.28 0.35 0.36 0.33 0.30 0.27 0.23 0.18 0.14 0.10 0.06 0.03 0.02 0.01 0.00 0.00 0.00 0.00 0.00 0.00 0.00 0.00 0.00 0.00
0.01 0.02 0.03 0.03 0.03 0.03 0.03 0.02 0.03 0.10 0.19 0.26 0.34 0.39 0.40 0.39 0.42 0.47 0.53 0.58 0.60 0.57 0.52 0.47 0.40 0.31 0.22 0.14 0.08 0.04 0.02 0.00 0.00 0.00 0.00 0.00 0.00 0.00 0.00 0.00 0.00 0.00 0.00
0.00 0.01 0.03 0.03 0.03 0.04 0.06 0.06 0.10 0.24 0.44 0.54 0.63 0.67 0.65 0.64 0.64 0.66 0.71 0.76 0.75 0.69 0.61 0.49 0.35 0.21 0.12 0.07 0.04 0.01 0.00 0.00 0.00 0.00 0.00 0.00 0.00 0.00 0.00 0.00 0.00 0.00 0.00
0.00 0.01 0.06 0.08 0.05 0.06 0.08 0.10 0.18 0.39 0.64 0.75 0.86 0.97 0.94 0.88 0.90 0.89 0.89 0.82 0.72 0.61 0.45 0.27 0.15 0.08 0.05 0.04 0.02 0.00 0.00 0.00 0.00 0.00 0.00 0.00 0.00 0.00 0.00 0.00 0.00 0.00 0.00
0.00 0.01 0.08 0.15 0.16 0.15 0.12 0.12 0.25 0.52 0.79 0.99 1.12 1.16 1.19 1.18 1.10 0.99 0.88 0.71 0.53 0.34 0.18 0.10 0.06 0.04 0.02 0.01 0.00 0.00 0.00 0.00 0.00 0.00 0.00 0.00 0.00 0.00 0.00 0.00 0.00 0.00 0.00
0.00 0.02 0.08 0.20 0.26 0.19 0.13 0.18 0.37 0.70 0.98 1.14 1.22 1.26 1.23 1.10 0.97 0.79 0.56 0.38 0.25 0.15 0.08 0.03 0.01 0.01 0.00 0.00 0.00 0.00 0.00 0.00 0.00 0.00 0.00 0.00 0.00 0.00 0.00 0.00 0.00 0.00 0.00
0.01 0.03 0.08 0.18 0.28 0.24 0.25 0.38 0.61 0.85 0.99 1.06 1.07 1.02 0.90 0.72 0.55 0.37 0.22 0.13 0.07 0.04 0.02 0.01 0.00 0.00 0.00 0.00 0.00 0.00 0.00 0.00 0.00 0.00 0.00 0.00 0.00 0.00 0.00 0.00 0.00 0.00 0.00
0.03 0.07 0.15 0.26 0.33 0.36 0.37 0.47 0.61 0.74 0.75 0.71 0.71 0.66 0.55 0.42 0.27 0.15 0.07 0.03 0.01 0.01 0.00 0.00 0.00 0.00 0.00 0.00 0.00 0.00 0.00 0.00 0.00 0.00 0.00 0.00 0.00 0.00 0.00 0.00 0.00 0.00 0.00
0.06 0.12 0.20 0.28 0.32 0.34 0.35 0.42 0.48 0.52 0.49 0.46 0.45 0.41 0.32 0.21 0.12 0.06 0.02 0.01 0.00 0.00 0.00 0.00 0.00 0.00 0.00 0.00 0.00 0.00 0.00 0.00 0.00 0.00 0.00 0.00 0.00 0.00 0.01 0.01 0.01 0.02 0.02
0.10 0.15 0.20 0.23 0.24 0.24 0.28 0.31 0.33 0.32 0.33 0.32 0.29 0.23 0.15 0.08 0.05 0.02 0.01 0.00 0.00 0.00 0.00 0.00 0.00 0.00 0.00 0.00 0.00 0.00 0.00 0.00 0.00 0.00 0.01 0.02 0.01 0.02 0.02 0.02 0.03 0.03 0.04
0.14 0.15 0.16 0.16 0.14 0.14 0.19 0.21 0.23 0.26 0.27 0.23 0.17 0.11 0.07 0.04 0.02 0.01 0.00 0.00 0.00 0.00 0.00 0.00 0.00 0.00 0.00 0.00 0.00 0.00 0.00 0.01 0.02 0.02 0.03 0.03 0.04 0.04 0.04 0.04 0.03 0.02 0.03
0.15 0.12 0.11 0.10 0.08 0.10 0.13 0.16 0.18 0.17 0.14 0.11 0.08 0.05 0.03 0.02 0.01 0.01 0.00 0.00 0.00 0.00 0.00 0.00 0.00 0.00 0.00 0.00 0.01 0.01 0.01 0.02 0.03 0.03 0.04 0.04 0.04 0.05 0.04 0.04 0.03 0.03 0.04
0.15 0.11 0.10 0.10 0.10 0.11 0.13 0.12 0.12 0.09 0.07 0.05 0.04 0.02 0.01 0.01 0.01 0.00 0.00 0.00 0.00 0.00 0.00 0.00 0.01 0.01 0.00 0.00 0.01 0.01 0.01 0.02 0.02 0.02 0.02 0.02 0.02 0.03 0.03 0.03 0.03 0.03 0.02
0.10 0.11 0.16 0.16 0.14 0.09 0.08 0.07 0.07 0.05 0.03 0.02 0.01 0.01 0.01 0.00 0.00 0.00 0.00 0.01 0.01 0.02 0.02 0.01 0.01 0.00 0.00 0.00 0.00 0.00 0.00 0.00 0.01 0.01 0.01 0.01 0.02 0.03 0.03 0.03 0.03 0.03 0.04
0.09 0.16 0.20 0.14 0.09 0.05 0.03 0.03 0.03 0.02 0.01 0.01 0.01 0.01 0.01 0.02 0.02 0.02 0.03 0.03 0.04 0.02 0.01 0.01 0.00 0.00 0.00 0.00 0.00 0.00 0.00 0.00 0.00 0.00 0.01 0.01 0.02 0.03 0.04 0.04 0.05 0.06 0.08
0.10 0.10 0.08 0.06 0.04 0.02 0.02 0.02 0.02 0.02 0.02 0.03 0.04 0.05 0.06 0.07 0.07 0.06 0.04 0.03 0.02 0.01 0.00 0.00 0.00 0.00 0.00 0.00 0.00 0.00 0.00 0.00 0.00 0.01 0.01 0.01 0.01 0.02 0.02 0.04 0.08 0.12 0.12
0.08 0.06 0.05 0.04 0.04 0.04 0.04 0.05 0.07 0.09 0.10 0.11 0.13 0.15 0.15 0.14 0.10 0.05 0.02 0.01 0.00 0.00 0.00 0.00 0.00 0.01 0.00 0.00 0.00 0.00 0.00 0.00 0.01 0.01 0.02 0.01 0.01 0.01 0.02 0.03 0.06 0.05 0.06
0.05 0.04 0.06 0.06 0.06 0.07 0.09 0.13 0.18 0.20 0.22 0.25 0.25 0.22 0.17 0.11 0.05 0.02 0.00 0.00 0.00 0.00 0.00 0.00 0.00 0.01 0.01 0.00 0.00 0.00 0.00 0.00 0.01 0.01 0.02 0.01 0.01 0.02 0.04 0.03 0.02 0.01 0.01
0.06 0.08 0.09 0.09 0.10 0.14 0.22 0.30 0.34 0.33 0.30 0.25 0.18 0.11 0.07 0.03 0.01 0.00 0.00 0.00 0.00 0.00 0.00 0.00 0.00 0.01 0.02 0.00 0.00 0.00 0.00 0.00 0.00 0.01 0.01 0.01 0.02 0.05 0.07 0.04 0.03 0.02 0.01
0.08 0.09 0.10 0.12 0.17 0.21 0.24 0.26 0.24 0.20 0.14 0.08 0.04 0.02 0.01 0.00 0.00 0.00 0.00 0.00 0.00 0.00 0.00 0.00 0.00 0.01 0.02 0.01 0.00 0.00 0.00 0.00 0.00 0.00 0.00 0.02 0.05 0.05 0.05 0.03 0.05 0.07 0.05
0.07 0.07 0.08 0.12 0.15 0.15 0.14 0.12 0.09 0.06 0.04 0.02 0.01 0.00 0.00 0.00 0.00 0.00 0.00 0.00 0.00 0.00 0.00 0.00 0.01 0.01 0.01 0.01 0.00 0.00 0.00 0.00 0.00 0.01 0.01 0.04 0.07 0.05 0.04 0.06 0.06 0.10 0.12
0.05 0.05 0.06 0.07 0.07 0.05 0.04 0.03 0.02 0.01 0.01 0.00 0.00 0.00 0.00 0.00 0.00 0.00 0.00 0.00 0.00 0.00 0.00 0.00 0.00 0.01 0.01 0.01 0.00 0.00 0.00 0.00 0.00 0.01 0.03 0.06 0.08 0.06 0.08 0.09 0.11 0.14 0.17
0.04 0.04 0.04 0.03 0.03 0.02 0.02 0.01 0.00 0.00 0.00 0.00 0.00 0.00 0.00 0.00 0.00 0.00 0.00 0.00 0.00 0.00 0.00 0.00 0.00 0.01 0.01 0.01 0.00 0.00 0.00 0.01 0.01 0.03 0.06 0.10 0.11 0.12 0.13 0.16 0.18 0.19 0.18
0.02 0.02 0.02 0.02 0.02 0.01 0.01 0.00 0.00 0.00 0.00 0.00 0.00 0.00 0.00 0.00 0.00 0.00 0.00 0.00 0.01 0.00 0.00 0.01 0.01 0.01 0.01 0.00 0.00 0.00 0.00 0.01 0.01 0.02 0.06 0.14 0.19 0.22 0.23 0.23 0.21 0.17 0.16
0.02 0.02 0.02 0.02 0.01 0.00 0.00 0.00 0.00 0.00 0.00 0.00 0.00 0.00 0.00 0.00 0.00 0.00 0.00 0.01 0.01 0.00 0.00 0.01 0.00 0.00 0.00 0.01 0.02 0.01 0.01 0.01 0.02 0.02 0.03 0.07 0.13 0.17 0.17 0.17 0.16 0.14 0.11
0.02 0.02 0.02 0.01 0.00 0.00 0.00 0.00 0.00 0.00 0.00 0.00 0.00 0.00 0.00 0.00 0.00 0.01 0.01 0.00 0.00 0.00 0.00 0.00 0.00 0.01 0.02 0.02 0.02 0.01 0.01 0.02 0.03 0.02 0.04 0.08 0.12 0.17 0.16 0.16 0.17 0.14 0.11

GEFSMW_prec_meanprecacc_024.txt.gz
Total_Precipitation_Accumulation
0.01 0.01 0.01 0.01 0.01 0.01 0.01 0.01 0.01 0.04 0.06 0.11 0.18 0.28 0.42 0.49 0.51 0.54 0.60 0.69 0.77 0.81 0.76 0.66 0.58 0.51 0.43 0.35 0.27 0.20 0.15 0.12 0.09 0.06 0.04 0.02 0.01 0.00 0.00 0.00 0.00 0.00 0.00
0.01 0.02 0.03 0.03 0.03 0.03 0.03 0.02 0.03 0.12 0.24 0.39 0.58 0.77 0.89 0.97 1.04 1.07 1.10 1.16 1.22 1.20 1.11 0.97 0.87 0.78 0.58 0.36 0.21 0.14 0.11 0.09 0.07 0.04 0.02 0.01 0.00 0.00 0.00 0.00 0.00 0.00 0.00
0.00 0.01 0.03 0.03 0.03 0.04 0.06 0.06 0.10 0.28 0.53 0.77 1.04 1.27 1.43 1.59 1.63 1.55 1.51 1.50 1.47 1.40 1.35 1.18 0.92 0.64 0.38 0.23 0.15 0.12 0.09 0.05 0.02 0.01 0.00 0.00 0.00 0.00 0.00 0.00 0.00 0.00 0.00
0.00 0.01 0.06 0.08 0.05 0.07 0.09 0.10 0.19 0.43 0.76 1.03 1.36 1.66 1.85 2.03 2.15 1.97 1.79 1.56 1.36 1.26 1.13 0.92 0.62 0.37 0.22 0.14 0.09 0.05 0.02 0.01 0.00 0.00 0.00 0.00 0.00 0.00 0.00 0.00 0.00 0.00 0.00
0.00 0.01 0.08 0.15 0.17 0.15 0.12 0.12 0.27 0.58 0.97 1.34 1.65 1.84 2.00 2.13 2.07 1.80 1.53 1.28 1.04 0.78 0.57 0.40 0.25 0.15 0.09 0.05 0.02 0.01 0.00 0.00 0.00 0.00 0.00 0.00 0.00 0.00 0.00 0.00 0.00 0.00 0.00
0.00 0.02 0.08 0.20 0.26 0.19 0.13 0.19 0.40 0.79 1.18 1.45 1.68 1.79 1.82 1.71 1.52 1.27 0.96 0.77 0.63 0.44 0.25 0.12 0.06 0.03 0.01 0.01 0.00 0.00 0.00 0.00 0.00 0.00 0.00 0.00 0.00 0.00 0.00 0.00 0.00 0.00 0.00
0.02 0.04 0.09 0.19 0.29 0.25 0.27 0.39 0.66 0.98 1.19 1.31 1.38 1.36 1.27 1.06 0.85 0.67 0.52 0.41 0.29 0.16 0.06 0.02 0.01 0.00 0.00 0.00 0.00 0.00 0.00 0.00 0.00 0.00 0.00 0.00 0.00 0.00 0.00 0.00 0.00 0.00 0.00
0.04 0.08 0.17 0.27 0.34 0.38 0.39 0.50 0.67 0.85 0.89 0.86 0.90 0.85 0.72 0.58 0.45 0.35 0.25 0.16 0.08 0.04 0.01 0.00 0.00 0.00 0.00 0.00 0.00 0.00 0.00 0.00 0.00 0.00 0.00 0.00 0.00 0.00 0.00 0.00 0.00 0.00 0.00
0.07 0.14 0.22 0.29 0.34 0.35 0.38 0.45 0.54 0.60 0.58 0.56 0.56 0.51 0.42 0.32 0.23 0.15 0.09 0.04 0.02 0.01 0.00 0.00 0.00 0.00 0.00 0.00 0.00 0.00 0.00 0.00 0.00 0.00 0.00 0.00 0.00 0.00 0.01 0.01 0.01 0.02 0.02
0.12 0.17 0.22 0.25 0.25 0.25 0.30 0.34 0.37 0.37 0.38 0.37 0.34 0.29 0.21 0.14 0.10 0.06 0.04 0.03 0.02 0.01 0.00 0.00 0.00 0.00 0.00 0.00 0.00 0.00 0.00 0.00 0.00 0.00 0.01 0.02 0.01 0.02 0.02 0.02 0.03 0.03 0.04
0.16 0.17 0.18 0.18 0.16 0.16 0.21 0.23 0.25 0.29 0.31 0.27 0.22 0.16 0.12 0.08 0.05 0.03 0.02 0.01 0.01 0.00 0.00 0.00 0.00 0.00 0.00 0.00 0.00 0.00 0.00 0.01 0.02 0.02 0.03 0.03 0.04 0.04 0.04 0.04 0.04 0.03 0.03
0.17 0.14 0.13 0.12 0.10 0.12 0.15 0.18 0.20 0.19 0.17 0.13 0.10 0.07 0.05 0.04 0.03 0.02 0.01 0.00 0.00 0.00 0.00 0.00 0.00 0.00 0.00 0.00 0.01 0.01 0.01 0.02 0.03 0.03 0.04 0.04 0.04 0.05 0.04 0.04 0.03 0.03 0.05
0.18 0.14 0.12 0.11 0.11 0.13 0.14 0.13 0.12 0.10 0.08 0.06 0.05 0.03 0.02 0.02 0.01 0.01 0.00 0.00 0.00 0.00 0.00 0.00 0.01 0.01 0.01 0.00 0.01 0.01 0.01 0.02 0.02 0.02 0.02 0.02 0.02 0.03 0.03 0.04 0.03 0.03 0.04
0.12 0.13 0.17 0.17 0.14 0.10 0.08 0.07 0.07 0.05 0.04 0.02 0.02 0.01 0.01 0.01 0.00 0.01 0.01 0.01 0.01 0.02 0.02 0.02 0.01 0.00 0.00 0.00 0.00 0.00 0.00 0.00 0.01 0.01 0.01 0.01 0.02 0.03 0.04 0.04 0.04 0.06 0.07
0.10 0.17 0.21 0.15 0.09 0.06 0.04 0.03 0.04 0.02 0.01 0.01 0.01 0.01 0.02 0.02 0.03 0.03 0.03 0.04 0.04 0.03 0.02 0.01 0.00 0.00 0.00 0.00 0.00 0.00 0.00 0.00 0.00 0.00 0.01 0.01 0.02 0.04 0.05 0.05 0.07 0.10 0.13
0.12 0.12 0.10 0.08 0.05 0.03 0.02 0.02 0.02 0.02 0.03 0.03 0.04 0.06 0.07 0.08 0.08 0.07 0.05 0.04 0.02 0.01 0.00 0.00 0.00 0.00 0.00 0.00 0.00 0.00 0.00 0.00 0.01 0.01 0.01 0.01 0.02 0.02 0.02 0.04 0.09 0.15 0.17
0.12 0.09 0.08 0.06 0.05 0.05 0.04 0.05 0.07 0.09 0.10 0.12 0.14 0.16 0.17 0.15 0.11 0.06 0.03 0.01 0.00 0.00 0.00 0.00 0.00 0.01 0.00 0.00 0.00 0.00 0.00 0.01 0.01 0.02 0.02 0.02 0.01 0.02 0.03 0.04 0.06 0.06 0.07
0.09 0.08 0.09 0.09 0.07 0.08 0.09 0.14 0.18 0.21 0.24 0.27 0.27 0.24 0.19 0.13 0.06 0.02 0.01 0.00 0.00 0.00 0.00 0.00 0.01 0.01 0.01 0.00 0.00 0.00 0.00 0.01 0.01 0.02 0.02 0.02 0.02 0.03 0.05 0.04 0.03 0.03 0.03
0.10 0.11 0.12 0.11 0.12 0.15 0.23 0.31 0.36 0.36 0.33 0.29 0.22 0.14 0.09 0.05 0.02 0.01 0.00 0.00 0.00 0.00 0.00 0.00 0.01 0.01 0.03 0.01 0.00 0.00 0.00 0.01 0.01 0.01 0.01 0.02 0.03 0.06 0.07 0.05 0.04 0.04 0.03
0.09 0.10 0.11 0.13 0.18 0.22 0.26 0.27 0.27 0.23 0.19 0.12 0.07 0.04 0.02 0.01 0.00 0.00 0.00 0.00 0.00 0.00 0.00 0.00 0.00 0.01 0.03 0.01 0.00 0.00 0.00 0.00 0.00 0.00 0.01 0.03 0.05 0.05 0.05 0.04 0.06 0.09 0.07
0.08 0.08 0.09 0.13 0.16 0.16 0.15 0.14 0.12 0.10 0.06 0.03 0.02 0.01 0.00 0.00 0.00 0.00 0.00 0.00 0.01 0.00 0.00 0.00 0.01 0.01 0.01 0.01 0.00 0.00 0.00 0.00 0.01 0.01 0.02 0.04 0.07 0.05 0.04 0.06 0.08 0.12 0.13
0.05 0.05 0.07 0.08 0.08 0.07 0.06 0.06 0.05 0.03 0.02 0.01 0.01 0.00 0.00 0.00 0.00 0.00 0.01 0.01 0.01 0.01 0.01 0.01 0.01 0.01 0.02 0.01 0.00 0.00 0.00 0.00 0.01 0.02 0.04 0.07 0.08 0.06 0.09 0.10 0.12 0.15 0.19
0.04 0.05 0.05 0.04 0.05 0.04 0.03 0.03 0.02 0.02 0.01 0.01 0.01 0.00 0.00 0.00 0.00 0.00 0.01 0.01 0.01 0.01 0.01 0.01 0.01 0.01 0.02 0.01 0.00 0.00 0.00 0.01 0.02 0.04 0.07 0.10 0.11 0.13 0.15 0.17 0.19 0.21 0.22
0.03 0.03 0.03 0.03 0.03 0.03 0.02 0.02 0.02 0.01 0.01 0.01 0.01 0.01 0.01 0.00 0.00 0.00 0.01 0.01 0.01 0.01 0.01 0.01 0.01 0.01 0.01 0.01 0.01 0.00 0.00 0.01 0.02 0.03 0.07 0.14 0.20 0.23 0.24 0.24 0.24 0.22 0.21
0.03 0.02 0.03 0.03 0.02 0.01 0.01 0.01 0.02 0.02 0.02 0.02 0.01 0.01 0.01 0.00 0.01 0.01 0.01 0.01 0.01 0.00 0.01 0.01 0.01 0.01 0.01 0.01 0.02 0.01 0.01 0.01 0.02 0.02 0.05 0.09 0.14 0.18 0.18 0.19 0.19 0.20 0.17
0.03 0.02 0.02 0.01 0.01 0.00 0.01 0.01 0.01 0.02 0.02 0.02 0.01 0.01 0.00 0.00 0.00 0.01 0.02 0.01 0.00 0.00 0.00 0.00 0.00 0.01 0.02 0.02 0.02 0.01 0.01 0.02 0.03 0.03 0.05 0.09 0.14 0.18 0.17 0.18 0.19 0.19 0.17

GEFSMW_prec_meanprecacc_030.txt.gz
Total_Precipitation_Accumulation
0.01 0.01 0.02 0.02 0.02 0.01 0.02 0.02 0.04 0.06 0.08 0.12 0.20 0.31 0.47 0.56 0.58 0.62 0.69 0.82 0.92 0.97 0.95 0.88 0.79 0.70 0.60 0.50 0.40 0.29 0.21 0.16 0.12 0.08 0.05 0.03 0.01 0.01 0.00 0.00 0.00 0.00 0.00
0.01 0.02 0.04 0.08 0.05 0.03 0.04 0.04 0.07 0.16 0.29 0.45 0.65 0.86 1.00 1.10 1.16 1.21 1.28 1.34 1.38 1.38 1.33 1.24 1.14 1.03 0.82 0.56 0.37 0.25 0.19 0.14 0.10 0.07 0.04 0.02 0.01 0.00 0.00 0.00 0.00 0.00 0.00
0.00 0.01 0.03 0.05 0.05 0.05 0.07 0.09 0.16 0.36 0.63 0.87 1.14 1.40 1.59 1.79 1.84 1.76 1.71 1.70 1.65 1.57 1.53 1.43 1.21 0.92 0.64 0.42 0.28 0.21 0.16 0.10 0.06 0.03 0.02 0.01 0.00 0.00 0.00 0.00 0.00 0.00 0.00
0.00 0.01 0.06 0.08 0.05 0.07 0.11 0.14 0.27 0.54 0.87 1.14 1.46 1.78 2.02 2.22 2.34 2.16 1.95 1.70 1.49 1.38 1.27 1.14 0.89 0.63 0.43 0.28 0.19 0.13 0.08 0.05 0.03 0.01 0.00 0.00 0.00 0.00 0.00 0.00 0.00 0.00 0.00
0.00 0.01 0.08 0.15 0.17 0.16 0.13 0.17 0.36 0.68 1.10 1.47 1.77 1.99 2.20 2.31 2.23 1.95 1.66 1.40 1.16 0.90 0.70 0.57 0.41 0.29 0.19 0.12 0.07 0.05 0.03 0.02 0.01 0.00 0.00 0.00 0.00 0.00 0.00 0.00 0.00 0.00 0.00
0.01 0.02 0.08 0.20 0.27 0.20 0.16 0.25 0.48 0.90 1.33 1.62 1.87 2.00 2.01 1.88 1.66 1.39 1.09 0.91 0.74 0.53 0.33 0.21 0.13 0.08 0.04 0.02 0.01 0.01 0.00 0.00 0.00 0.00 0.00 0.00 0.00 0.00 0.00 0.00 0.00 0.00 0.00
0.02 0.04 0.09 0.20 0.30 0.27 0.30 0.44 0.73 1.08 1.32 1.48 1.59 1.56 1.45 1.22 0.99 0.78 0.60 0.47 0.33 0.19 0.10 0.06 0.04 0.03 0.01 0.01 0.00 0.00 0.00 0.00 0.00 0.00 0.00 0.00 0.00 0.00 0.00 0.00 0.00 0.00 0.00
0.05 0.09 0.18 0.29 0.36 0.40 0.42 0.54 0.74 0.95 1.01 1.02 1.08 1.02 0.88 0.72 0.56 0.42 0.28 0.17 0.09 0.05 0.03 0.02 0.01 0.01 0.00 0.00 0.00 0.00 0.00 0.00 0.00 0.00 0.00 0.00 0.00 0.00 0.00 0.00 0.00 0.00 0.00
0.08 0.15 0.24 0.32 0.36 0.38 0.41 0.50 0.59 0.67 0.68 0.66 0.66 0.62 0.53 0.40 0.27 0.17 0.10 0.05 0.03 0.02 0.02 0.01 0.01 0.00 0.00 0.00 0.00 0.00 0.00 0.00 0.01 0.00 0.00 0.00 0.00 0.00 0.01 0.01 0.01 0.02 0.02
0.13 0.19 0.24 0.27 0.28 0.28 0.33 0.37 0.40 0.40 0.42 0.42 0.40 0.35 0.26 0.18 0.12 0.07 0.05 0.03 0.02 0.02 0.02 0.01 0.00 0.00 0.00 0.00 0.00 0.00 0.00 0.00 0.01 0.01 0.01 0.02 0.01 0.02 0.02 0.02 0.03 0.03 0.04
0.17 0.19 0.21 0.21 0.19 0.18 0.24 0.26 0.27 0.32 0.34 0.31 0.26 0.19 0.14 0.09 0.06 0.04 0.02 0.02 0.01 0.01 0.00 0.00 0.00 0.00 0.00 0.00 0.00 0.00 0.01 0.01 0.02 0.02 0.03 0.03 0.04 0.04 0.04 0.04 0.04 0.03 0.03
0.19 0.16 0.15 0.15 0.12 0.14 0.17 0.19 0.21 0.20 0.19 0.15 0.11 0.08 0.06 0.04 0.03 0.02 0.01 0.01 0.00 0.00 0.00 0.00 0.00 0.00 0.00 0.00 0.01 0.01 0.01 0.02 0.03 0.03 0.04 0.04 0.04 0.05 0.05 0.04 0.04 0.04 0.05
0.20 0.17 0.15 0.14 0.13 0.15 0.15 0.14 0.13 0.10 0.09 0.07 0.05 0.04 0.03 0.02 0.02 0.01 0.01 0.01 0.00 0.00 0.00 0.01 0.01 0.01 0.01 0.00 0.01 0.01 0.01 0.02 0.02 0.02 0.02 0.02 0.02 0.03 0.04 0.04 0.04 0.04 0.04
0.16 0.17 0.21 0.19 0.16 0.11 0.09 0.08 0.08 0.06 0.04 0.03 0.02 0.01 0.01 0.01 0.01 0.01 0.01 0.01 0.01 0.02 0.02 0.02 0.01 0.00 0.00 0.00 0.00 0.00 0.00 0.00 0.01 0.01 0.01 0.01 0.02 0.04 0.05 0.05 0.05 0.06 0.08
0.16 0.22 0.24 0.18 0.11 0.07 0.05 0.04 0.04 0.03 0.02 0.01 0.01 0.02 0.02 0.03 0.03 0.03 0.04 0.04 0.04 0.03 0.02 0.01 0.00 0.00 0.00 0.00 0.00 0.00 0.00 0.00 0.00 0.01 0.01 0.01 0.02 0.04 0.05 0.05 0.07 0.11 0.15
0.21 0.20 0.18 0.14 0.10 0.07 0.05 0.04 0.05 0.04 0.04 0.05 0.06 0.07 0.08 0.08 0.08 0.07 0.05 0.04 0.02 0.01 0.00 0.00 0.00 0.00 0.00 0.00 0.00 0.00 0.00 0.00 0.01 0.01 0.02 0.02 0.02 0.02 0.02 0.05 0.10 0.16 0.19
0.27 0.24 0.22 0.20 0.17 0.15 0.13 0.12 0.13 0.13 0.13 0.14 0.15 0.17 0.17 0.15 0.11 0.06 0.03 0.01 0.01 0.01 0.01 0.01 0.00 0.01 0.01 0.00 0.00 0.00 0.00 0.01 0.02 0.03 0.03 0.02 0.01 0.02 0.04 0.05 0.07 0.07 0.08
0.31 0.31 0.32 0.32 0.28 0.25 0.23 0.23 0.25 0.25 0.27 0.28 0.28 0.25 0.20 0.14 0.07 0.03 0.01 0.01 0.01 0.01 0.01 0.01 0.01 0.02 0.01 0.00 0.00 0.00 0.00 0.01 0.02 0.03 0.03 0.03 0.03 0.04 0.05 0.04 0.03 0.03 0.05
0.37 0.41 0.42 0.37 0.32 0.30 0.32 0.38 0.41 0.40 0.37 0.32 0.25 0.16 0.10 0.06 0.03 0.02 0.01 0.01 0.01 0.01 0.01 0.01 0.01 0.02 0.03 0.01 0.00 0.00 0.00 0.01 0.01 0.02 0.02 0.03 0.05 0.06 0.07 0.05 0.05 0.05 0.05
0.28 0.27 0.25 0.24 0.26 0.29 0.31 0.31 0.30 0.25 0.20 0.14 0.08 0.05 0.03 0.02 0.02 0.01 0.01 0.01 0.01 0.01 0.01 0.01 0.01 0.02 0.04 0.01 0.00 0.00 0.00 0.01 0.01 0.01 0.02 0.03 0.06 0.05 0.05 0.04 0.07 0.11 0.09
0.17 0.15 0.15 0.18 0.20 0.20 0.18 0.16 0.14 0.11 0.07 0.04 0.02 0.02 0.01 0.01 0.01 0.01 0.01 0.01 0.01 0.02 0.02 0.01 0.02 0.03 0.02 0.01 0.00 0.00 0.00 0.01 0.01 0.02 0.03 0.06 0.07 0.05 0.04 0.06 0.10 0.14 0.14
0.09 0.09 0.10 0.11 0.10 0.09 0.08 0.08 0.07 0.04 0.03 0.02 0.01 0.01 0.01 0.00 0.00 0.01 0.02 0.02 0.02 0.03 0.03 0.03 0.02 0.02 0.02 0.02 0.00 0.00 0.00 0.00 0.02 0.04 0.06 0.08 0.08 0.06 0.09 0.10 0.13 0.15 0.20
0.06 0.06 0.06 0.06 0.07 0.06 0.05 0.05 0.04 0.04 0.03 0.04 0.03 0.02 0.01 0.01 0.00 0.01 0.02 0.02 0.03 0.03 0.02 0.03 0.03 0.03 0.03 0.02 0.00 0.00 0.00 0.01 0.02 0.05 0.08 0.10 0.11 0.13 0.17 0.19 0.19 0.23 0.28
0.04 0.04 0.04 0.05 0.06 0.06 0.06 0.07 0.05 0.05 0.06 0.07 0.06 0.04 0.03 0.02 0.01 0.01 0.02 0.03 0.04 0.02 0.02 0.03 0.03 0.03 0.03 0.02 0.01 0.01 0.01 0.01 0.03 0.04 0.08 0.15 0.21 0.24 0.27 0.29 0.31 0.31 0.30
0.05 0.05 0.06 0.06 0.05 0.04 0.05 0.05 0.06 0.07 0.09 0.09 0.06 0.03 0.02 0.01 0.02 0.03 0.02 0.02 0.03 0.00 0.01 0.02 0.02 0.02 0.02 0.02 0.02 0.01 0.01 0.02 0.02 0.02 0.06 0.12 0.17 0.21 0.22 0.25 0.28 0.30 0.27
0.04 0.04 0.04 0.03 0.02 0.02 0.02 0.03 0.04 0.06 0.07 0.08 0.04 0.02 0.01 0.01 0.01 0.03 0.05 0.02 0.00 0.00 0.00 0.00 0.01 0.01 0.02 0.02 0.02 0.01 0.01 0.02 0.03 0.03 0.07 0.11 0.15 0.20 0.20 0.22 0.25 0.26 0.25

GEFSMW_prec_meanprecacc_036.txt.gz
Total_Precipitation_Accumulation
0.06 0.09 0.14 0.18 0.17 0.15 0.14 0.12 0.12 0.13 0.13 0.17 0.24 0.35 0.50 0.59 0.60 0.66 0.74 0.86 0.95 1.00 0.99 0.90 0.81 0.73 0.63 0.54 0.45 0.35 0.27 0.20 0.15 0.10 0.07 0.03 0.02 0.01 0.01 0.00 0.00 0.00 0.00
0.05 0.08 0.17 0.32 0.31 0.25 0.21 0.19 0.19 0.29 0.43 0.55 0.74 0.94 1.06 1.16 1.24 1.30 1.37 1.42 1.46 1.44 1.39 1.29 1.18 1.06 0.84 0.59 0.39 0.28 0.22 0.18 0.13 0.09 0.06 0.03 0.01 0.01 0.00 0.00 0.00 0.00 0.00
0.04 0.06 0.15 0.25 0.33 0.32 0.34 0.34 0.35 0.56 0.81 1.01 1.28 1.51 1.71 1.91 1.97 1.89 1.83 1.82 1.77 1.66 1.62 1.50 1.26 0.95 0.66 0.44 0.29 0.23 0.17 0.12 0.08 0.04 0.03 0.02 0.01 0.00 0.00 0.00 0.00 0.00 0.00
0.02 0.04 0.11 0.20 0.24 0.35 0.42 0.43 0.55 0.81 1.08 1.34 1.70 2.00 2.20 2.39 2.51 2.35 2.12 1.86 1.64 1.50 1.37 1.23 0.94 0.66 0.44 0.29 0.20 0.13 0.09 0.05 0.04 0.02 0.01 0.01 0.00 0.00 0.00 0.00 0.00 0.00 0.00
0.01 0.04 0.12 0.20 0.27 0.36 0.35 0.37 0.58 0.94 1.41 1.83 2.12 2.26 2.44 2.53 2.44 2.17 1.87 1.59 1.33 1.04 0.81 0.65 0.46 0.31 0.20 0.12 0.08 0.05 0.03 0.02 0.01 0.01 0.00 0.00 0.00 0.00 0.00 0.00 0.00 0.00 0.00
0.02 0.04 0.11 0.24 0.34 0.33 0.33 0.44 0.71 1.21 1.68 1.97 2.21 2.33 2.32 2.17 1.95 1.65 1.31 1.10 0.89 0.65 0.42 0.27 0.16 0.10 0.05 0.03 0.01 0.01 0.01 0.00 0.00 0.00 0.00 0.00 0.00 0.00 0.00 0.00 0.00 0.00 0.00
0.04 0.06 0.11 0.23 0.36 0.36 0.44 0.66 0.95 1.32 1.58 1.76 1.88 1.83 1.71 1.49 1.26 1.06 0.84 0.66 0.47 0.29 0.16 0.10 0.06 0.03 0.02 0.01 0.00 0.00 0.00 0.00 0.00 0.00 0.00 0.00 0.00 0.00 0.00 0.00 0.00 0.00 0.00
0.07 0.12 0.22 0.33 0.41 0.45 0.49 0.67 0.89 1.10 1.18 1.21 1.30 1.25 1.11 0.96 0.80 0.65 0.47 0.31 0.19 0.11 0.06 0.04 0.02 0.01 0.01 0.00 0.00 0.00 0.00 0.00 0.00 0.00 0.00 0.00 0.00 0.00 0.00 0.00 0.00 0.00 0.00
0.11 0.17 0.26 0.35 0.40 0.42 0.46 0.56 0.67 0.77 0.79 0.81 0.83 0.79 0.72 0.61 0.48 0.34 0.23 0.15 0.09 0.05 0.03 0.02 0.01 0.01 0.00 0.00 0.00 0.00 0.00 0.00 0.01 0.00 0.00 0.00 0.00 0.00 0.01 0.01 0.01 0.02 0.02
0.16 0.21 0.26 0.30 0.31 0.31 0.36 0.41 0.45 0.47 0.51 0.54 0.53 0.49 0.41 0.33 0.25 0.18 0.13 0.08 0.05 0.03 0.02 0.02 0.01 0.00 0.00 0.00 0.00 0.00 0.00 0.00 0.01 0.01 0.01 0.02 0.01 0.02 0.02 0.02 0.03 0.03 0.04
0.19 0.22 0.23 0.24 0.21 0.21 0.26 0.29 0.31 0.38 0.42 0.40 0.35 0.28 0.24 0.17 0.13 0.09 0.06 0.04 0.03 0.02 0.02 0.02 0.01 0.00 0.00 0.00 0.00 0.00 0.01 0.01 0.02 0.02 0.03 0.03 0.04 0.04 0.04 0.04 0.04 0.03 0.03
0.21 0.19 0.18 0.17 0.15 0.17 0.20 0.22 0.24 0.25 0.24 0.20 0.16 0.13 0.11 0.08 0.07 0.05 0.03 0.03 0.03 0.02 0.01 0.01 0.01 0.01 0.01 0.01 0.01 0.01 0.02 0.02 0.03 0.03 0.04 0.04 0.04 0.05 0.05 0.04 0.04 0.04 0.05
0.24 0.20 0.19 0.17 0.16 0.17 0.17 0.16 0.16 0.13 0.12 0.10 0.08 0.06 0.05 0.05 0.04 0.04 0.04 0.04 0.03 0.02 0.02 0.02 0.02 0.02 0.02 0.01 0.01 0.01 0.01 0.02 0.02 0.02 0.02 0.02 0.02 0.03 0.04 0.04 0.04 0.04 0.04
0.23 0.24 0.28 0.25 0.20 0.14 0.13 0.12 0.12 0.10 0.07 0.06 0.05 0.05 0.04 0.03 0.04 0.04 0.04 0.04 0.04 0.04 0.04 0.03 0.02 0.01 0.01 0.00 0.00 0.00 0.00 0.00 0.01 0.01 0.01 0.01 0.02 0.04 0.05 0.05 0.05 0.06 0.08
0.29 0.33 0.33 0.26 0.20 0.16 0.14 0.13 0.13 0.10 0.08 0.07 0.07 0.06 0.06 0.06 0.06 0.06 0.06 0.06 0.05 0.04 0.02 0.01 0.01 0.01 0.00 0.00 0.00 0.00 0.00 0.00 0.00 0.01 0.01 0.01 0.02 0.04 0.05 0.05 0.07 0.11 0.15
0.42 0.37 0.33 0.29 0.26 0.24 0.22 0.20 0.19 0.17 0.16 0.14 0.13 0.13 0.12 0.12 0.11 0.09 0.07 0.05 0.03 0.02 0.01 0.01 0.01 0.01 0.00 0.00 0.00 0.00 0.00 0.00 0.01 0.01 0.02 0.02 0.02 0.02 0.02 0.05 0.10 0.16 0.19
0.53 0.47 0.43 0.40 0.39 0.38 0.35 0.34 0.33 0.30 0.27 0.26 0.25 0.24 0.22 0.19 0.14 0.07 0.04 0.02 0.02 0.01 0.01 0.01 0.01 0.01 0.01 0.00 0.00 0.00 0.00 0.01 0.02 0.03 0.03 0.02 0.01 0.02 0.04 0.05 0.07 0.07 0.08
0.54 0.54 0.56 0.56 0.53 0.49 0.45 0.43 0.41 0.39 0.37 0.36 0.34 0.30 0.24 0.17 0.09 0.05 0.03 0.02 0.02 0.02 0.01 0.01 0.01 0.02 0.01 0.00 0.00 0.00 0.00 0.01 0.02 0.03 0.03 0.03 0.03 0.04 0.05 0.04 0.03 0.03 0.05
0.60 0.62 0.62 0.59 0.53 0.47 0.45 0.46 0.46 0.44 0.39 0.34 0.27 0.18 0.12 0.07 0.04 0.03 0.02 0.02 0.02 0.01 0.01 0.01 0.01 0.02 0.03 0.01 0.00 0.00 0.00 0.01 0.01 0.02 0.02 0.03 0.05 0.06 0.07 0.05 0.05 0.05 0.05
0.40 0.39 0.36 0.34 0.35 0.36 0.36 0.34 0.32 0.27 0.21 0.14 0.08 0.05 0.04 0.03 0.02 0.02 0.02 0.02 0.01 0.01 0.01 0.01 0.01 0.02 0.04 0.01 0.00 0.00 0.00 0.01 0.01 0.01 0.02 0.03 0.06 0.05 0.05 0.04 0.07 0.11 0.09
0.22 0.20 0.20 0.23 0.25 0.24 0.21 0.19 0.16 0.12 0.08 0.04 0.03 0.02 0.01 0.01 0.01 0.01 0.01 0.01 0.01 0.02 0.02 0.02 0.02 0.03 0.02 0.01 0.00 0.00 0.00 0.01 0.01 0.02 0.03 0.06 0.07 0.05 0.04 0.06 0.10 0.14 0.14
0.11 0.10 0.11 0.12 0.12 0.10 0.08 0.08 0.07 0.04 0.03 0.02 0.02 0.01 0.01 0.01 0.01 0.01 0.02 0.02 0.03 0.03 0.03 0.03 0.03 0.02 0.02 0.02 0.00 0.00 0.00 0.00 0.02 0.04 0.06 0.08 0.08 0.06 0.09 0.10 0.13 0.15 0.21
0.06 0.06 0.06 0.06 0.07 0.06 0.06 0.06 0.05 0.04 0.04 0.04 0.04 0.02 0.02 0.01 0.01 0.01 0.02 0.03 0.04 0.03 0.03 0.03 0.03 0.03 0.03 0.02 0.00 0.00 0.00 0.01 0.02 0.05 0.08 0.10 0.11 0.13 0.17 0.19 0.20 0.24 0.29
0.05 0.05 0.05 0.06 0.07 0.06 0.07 0.08 0.07 0.07 0.09 0.10 0.07 0.04 0.04 0.03 0.02 0.02 0.02 0.03 0.04 0.02 0.02 0.03 0.03 0.03 0.03 0.02 0.01 0.01 0.01 0.01 0.03 0.04 0.08 0.15 0.21 0.24 0.27 0.30 0.33 0.33 0.32
0.05 0.05 0.06 0.07 0.06 0.05 0.06 0.07 0.08 0.10 0.13 0.12 0.08 0.04 0.03 0.03 0.03 0.04 0.03 0.02 0.03 0.01 0.01 0.02 0.02 0.02 0.02 0.02 0.02 0.01 0.01 0.02 0.02 0.02 0.06 0.12 0.17 0.21 0.23 0.26 0.29 0.31 0.29
0.05 0.05 0.05 0.04 0.03 0.03 0.03 0.04 0.06 0.07 0.09 0.09 0.06 0.03 0.02 0.03 0.03 0.05 0.07 0.03 0.00 0.00 0.00 0.00 0.01 0.01 0.02 0.02 0.02 0.01 0.01 0.02 0.03 0.03 0.07 0.12 0.17 0.21 0.22 0.23 0.26 0.28 0.27

GEFSMW_prec_meanprecacc_042.txt.gz
Total_Precipitation_Accumulation
0.07 0.10 0.14 0.19 0.18 0.17 0.17 0.16 0.16 0.21 0.27 0.37 0.47 0.59 0.71 0.77 0.76 0.80 0.91 1.06 1.13 1.14 1.11 1.03 0.94 0.83 0.73 0.62 0.51 0.39 0.30 0.23 0.17 0.13 0.08 0.05 0.03 0.02 0.02 0.01 0.01 0.01 0.01
0.05 0.08 0.17 0.33 0.31 0.26 0.23 0.23 0.28 0.43 0.63 0.86 1.06 1.24 1.36 1.45 1.46 1.50 1.58 1.63 1.66 1.64 1.58 1.48 1.37 1.22 0.96 0.66 0.45 0.32 0.24 0.19 0.14 0.10 0.07 0.04 0.03 0.02 0.01 0.01 0.01 0.01 0.00
0.05 0.07 0.16 0.26 0.34 0.33 0.36 0.36 0.43 0.73 1.09 1.37 1.64 1.87 2.08 2.23 2.22 2.10 2.06 2.06 2.03 1.94 1.86 1.74 1.49 1.15 0.80 0.54 0.36 0.27 0.19 0.13 0.08 0.05 0.04 0.03 0.02 0.01 0.01 0.01 0.01 0.01 0.00
0.03 0.04 0.12 0.21 0.26 0.37 0.44 0.48 0.62 0.93 1.26 1.59 2.02 2.36 2.55 2.70 2.80 2.63 2.40 2.15 1.94 1.82 1.66 1.48 1.16 0.85 0.59 0.40 0.27 0.18 0.11 0.06 0.04 0.03 0.02 0.01 0.01 0.00 0.00 0.00 0.00 0.00 0.00
0.02 0.05 0.13 0.22 0.30 0.38 0.39 0.46 0.68 1.06 1.62 2.12 2.47 2.65 2.80 2.87 2.74 2.47 2.17 1.88 1.60 1.31 1.06 0.85 0.63 0.45 0.30 0.19 0.11 0.07 0.05 0.03 0.02 0.01 0.01 0.00 0.00 0.00 0.00 0.00 0.00 0.00 0.00
0.04 0.06 0.13 0.27 0.39 0.38 0.39 0.51 0.80 1.33 1.90 2.32 2.62 2.76 2.71 2.52 2.29 1.99 1.62 1.39 1.15 0.88 0.62 0.44 0.29 0.20 0.12 0.06 0.03 0.02 0.01 0.01 0.00 0.00 0.00 0.00 0.00 0.00 0.00 0.00 0.00 0.00 0.00
0.10 0.12 0.18 0.30 0.44 0.46 0.55 0.79 1.10 1.50 1.79 2.03 2.21 2.20 2.09 1.86 1.63 1.40 1.16 0.97 0.74 0.52 0.34 0.23 0.16 0.11 0.06 0.03 0.01 0.01 0.00 0.00 0.00 0.00 0.00 0.00 0.00 0.00 0.00 0.00 0.00 0.00 0.00
0.15 0.21 0.33 0.44 0.54 0.60 0.65 0.85 1.10 1.36 1.48 1.54 1.63 1.59 1.48 1.33 1.14 0.96 0.76 0.57 0.42 0.31 0.21 0.14 0.09 0.06 0.03 0.01 0.01 0.00 0.00 0.00 0.00 0.00 0.00 0.00 0.00 0.00 0.00 0.00 0.00 0.00 0.00
0.17 0.26 0.37 0.47 0.55 0.57 0.64 0.76 0.89 1.03 1.11 1.16 1.18 1.13 1.04 0.91 0.76 0.58 0.44 0.34 0.26 0.19 0.12 0.08 0.05 0.03 0.01 0.01 0.00 0.00 0.00 0.00 0.01 0.00 0.00 0.00 0.00 0.01 0.01 0.01 0.01 0.02 0.02
0.19 0.26 0.32 0.37 0.40 0.42 0.50 0.56 0.62 0.68 0.75 0.79 0.79 0.73 0.63 0.55 0.45 0.35 0.27 0.20 0.15 0.11 0.08 0.06 0.04 0.03 0.02 0.01 0.01 0.01 0.00 0.01 0.01 0.01 0.01 0.02 0.01 0.02 0.02 0.02 0.03 0.03 0.04
0.23 0.26 0.28 0.29 0.27 0.28 0.35 0.39 0.42 0.51 0.56 0.55 0.50 0.41 0.36 0.30 0.24 0.19 0.15 0.12 0.09 0.08 0.07 0.06 0.04 0.03 0.02 0.01 0.01 0.01 0.01 0.02 0.02 0.03 0.03 0.03 0.04 0.04 0.04 0.04 0.04 0.03 0.03
0.26 0.24 0.23 0.22 0.20 0.22 0.25 0.28 0.31 0.34 0.34 0.32 0.28 0.24 0.21 0.18 0.16 0.14 0.12 0.10 0.10 0.09 0.07 0.06 0.04 0.03 0.03 0.03 0.03 0.03 0.03 0.03 0.03 0.03 0.04 0.04 0.04 0.05 0.05 0.04 0.04 0.04 0.05
0.34 0.30 0.28 0.25 0.23 0.23 0.24 0.23 0.22 0.21 0.20 0.18 0.16 0.15 0.14 0.15 0.14 0.14 0.13 0.11 0.10 0.09 0.08 0.06 0.05 0.05 0.04 0.04 0.03 0.03 0.02 0.02 0.02 0.02 0.02 0.02 0.02 0.03 0.04 0.04 0.04 0.04 0.04
0.36 0.37 0.41 0.39 0.32 0.25 0.22 0.20 0.19 0.17 0.15 0.13 0.12 0.11 0.10 0.10 0.11 0.12 0.12 0.12 0.12 0.12 0.11 0.09 0.07 0.05 0.04 0.03 0.02 0.01 0.00 0.00 0.01 0.01 0.01 0.01 0.02 0.04 0.05 0.05 0.05 0.06 0.08
0.43 0.49 0.51 0.44 0.37 0.32 0.28 0.24 0.22 0.19 0.16 0.15 0.14 0.13 0.13 0.13 0.14 0.14 0.15 0.16 0.15 0.12 0.10 0.07 0.05 0.04 0.02 0.01 0.01 0.00 0.00 0.00 0.00 0.01 0.01 0.01 0.02 0.04 0.05 0.05 0.07 0.11 0.15
0.60 0.58 0.55 0.52 0.48 0.44 0.40 0.35 0.32 0.29 0.26 0.25 0.23 0.23 0.22 0.22 0.20 0.18 0.16 0.13 0.10 0.07 0.05 0.04 0.03 0.02 0.01 0.01 0.00 0.00 0.00 0.00 0.01 0.01 0.02 0.02 0.02 0.02 0.02 0.05 0.10 0.16 0.19
0.70 0.68 0.65 0.62 0.59 0.56 0.53 0.49 0.46 0.41 0.37 0.35 0.33 0.32 0.30 0.26 0.19 0.12 0.08 0.06 0.05 0.04 0.04 0.03 0.02 0.02 0.01 0.00 0.00 0.00 0.00 0.01 0.02 0.03 0.03 0.02 0.01 0.02 0.04 0.05 0.07 0.07 0.08
0.68 0.69 0.71 0.72 0.68 0.63 0.58 0.54 0.50 0.47 0.44 0.43 0.40 0.35 0.28 0.21 0.13 0.07 0.06 0.05 0.05 0.04 0.02 0.01 0.01 0.02 0.01 0.00 0.00 0.00 0.00 0.01 0.02 0.03 0.03 0.03 0.03 0.04 0.05 0.04 0.03 0.03 0.05
0.72 0.75 0.75 0.70 0.64 0.56 0.52 0.52 0.52 0.48 0.43 0.38 0.30 0.21 0.14 0.10 0.06 0.04 0.04 0.03 0.03 0.02 0.01 0.01 0.01 0.02 0.03 0.01 0.00 0.00 0.00 0.01 0.01 0.02 0.02 0.03 0.05 0.06 0.07 0.05 0.05 0.05 0.05
0.50 0.49 0.46 0.42 0.41 0.40 0.39 0.38 0.35 0.30 0.24 0.17 0.11 0.07 0.05 0.04 0.03 0.03 0.02 0.02 0.01 0.01 0.01 0.01 0.01 0.02 0.04 0.01 0.00 0.00 0.00 0.01 0.01 0.01 0.02 0.03 0.06 0.05 0.05 0.04 0.07 0.11 0.09
0.28 0.25 0.24 0.26 0.27 0.26 0.23 0.20 0.17 0.13 0.09 0.05 0.03 0.03 0.02 0.02 0.01 0.01 0.01 0.01 0.01 0.02 0.02 0.02 0.02 0.03 0.02 0.01 0.00 0.00 0.00 0.01 0.01 0.02 0.03 0.06 0.07 0.05 0.04 0.06 0.10 0.14 0.14
0.13 0.12 0.13 0.13 0.12 0.11 0.09 0.08 0.07 0.05 0.03 0.02 0.02 0.02 0.01 0.01 0.01 0.01 0.02 0.02 0.03 0.03 0.03 0.03 0.03 0.02 0.02 0.02 0.00 0.00 0.00 0.00 0.02 0.04 0.06 0.08 0.08 0.06 0.09 0.10 0.13 0.15 0.21
0.07 0.07 0.06 0.06 0.07 0.06 0.06 0.06 0.05 0.04 0.04 0.04 0.04 0.03 0.02 0.01 0.01 0.01 0.02 0.03 0.04 0.03 0.03 0.03 0.03 0.03 0.03 0.02 0.00 0.00 0.00 0.01 0.02 0.05 0.08 0.10 0.11 0.13 0.17 0.20 0.21 0.24 0.30
0.05 0.05 0.05 0.06 0.07 0.07 0.08 0.08 0.07 0.07 0.10 0.10 0.07 0.04 0.04 0.03 0.03 0.03 0.03 0.03 0.05 0.03 0.02 0.03 0.03 0.03 0.03 0.02 0.01 0.01 0.01 0.01 0.03 0.04 0.08 0.15 0.21 0.24 0.28 0.30 0.33 0.34 0.32
0.05 0.05 0.06 0.07 0.06 0.05 0.06 0.07 0.08 0.10 0.13 0.12 0.08 0.04 0.03 0.03 0.04 0.05 0.04 0.03 0.03 0.01 0.01 0.02 0.02 0.02 0.02 0.02 0.02 0.01 0.01 0.02 0.02 0.03 0.07 0.14 0.18 0.22 0.24 0.26 0.29 0.31 0.29
0.05 0.05 0.05 0.04 0.03 0.03 0.03 0.04 0.06 0.07 0.09 0.09 0.06 0.03 0.02 0.03 0.03 0.06 0.07 0.03 0.01 0.00 0.00 0.00 0.01 0.01 0.02 0.02 0.02 0.01 0.01 0.03 0.04 0.06 0.11 0.15 0.18 0.23 0.23 0.23 0.26 0.28 0.27

GEFSMW_prec_meanprecacc_048.txt.gz
Total_Precipitation_Accumulation
0.07 0.10 0.15 0.19 0.18 0.18 0.17 0.16 0.16 0.21 0.28 0.37 0.48 0.60 0.73 0.79 0.79 0.85 0.96 1.13 1.24 1.28 1.26 1.20 1.11 0.99 0.89 0.79 0.67 0.52 0.41 0.32 0.24 0.18 0.13 0.08 0.06 0.05 0.04 0.03 0.02 0.02 0.01
0.05 0.08 0.18 0.33 0.32 0.27 0.23 0.24 0.29 0.43 0.65 0.88 1.10 1.28 1.40 1.49 1.51 1.55 1.65 1.74 1.84 1.87 1.85 1.76 1.65 1.49 1.22 0.89 0.63 0.48 0.40 0.31 0.23 0.19 0.15 0.10 0.05 0.03 0.02 0.02 0.02 0.02 0.01
0.05 0.07 0.16 0.27 0.35 0.34 0.36 0.37 0.44 0.75 1.13 1.44 1.73 1.97 2.16 2.30 2.30 2.21 2.20 2.24 2.25 2.22 2.20 2.08 1.83 1.47 1.11 0.81 0.62 0.51 0.38 0.27 0.17 0.12 0.11 0.10 0.08 0.03 0.01 0.01 0.01 0.01 0.01
0.03 0.04 0.12 0.22 0.27 0.38 0.45 0.49 0.64 0.96 1.32 1.66 2.11 2.47 2.66 2.82 2.97 2.87 2.70 2.49 2.30 2.19 2.05 1.83 1.46 1.14 0.88 0.68 0.55 0.42 0.28 0.18 0.12 0.08 0.06 0.05 0.04 0.03 0.01 0.01 0.00 0.00 0.00
0.03 0.05 0.14 0.23 0.31 0.40 0.41 0.49 0.72 1.13 1.70 2.22 2.60 2.78 2.95 3.07 3.03 2.84 2.58 2.27 1.94 1.59 1.33 1.12 0.88 0.71 0.56 0.41 0.32 0.24 0.15 0.10 0.07 0.05 0.04 0.03 0.02 0.02 0.01 0.01 0.00 0.00 0.00
0.06 0.08 0.14 0.28 0.40 0.40 0.41 0.56 0.87 1.43 2.01 2.42 2.74 2.90 2.92 2.81 2.64 2.36 1.99 1.68 1.40 1.08 0.81 0.65 0.51 0.41 0.33 0.23 0.15 0.09 0.06 0.04 0.03 0.02 0.02 0.01 0.01 0.01 0.01 0.01 0.00 0.00 0.00
0.13 0.16 0.22 0.33 0.48 0.50 0.61 0.86 1.19 1.62 1.90 2.15 2.35 2.38 2.34 2.19 2.00 1.77 1.51 1.28 1.00 0.72 0.50 0.38 0.32 0.26 0.19 0.12 0.07 0.05 0.03 0.02 0.02 0.01 0.01 0.01 0.01 0.00 0.00 0.00 0.00 0.00 0.00
0.19 0.25 0.36 0.48 0.59 0.65 0.71 0.92 1.20 1.48 1.59 1.68 1.78 1.79 1.74 1.66 1.53 1.36 1.14 0.91 0.70 0.53 0.38 0.29 0.22 0.15 0.09 0.07 0.05 0.04 0.03 0.02 0.01 0.01 0.01 0.01 0.00 0.00 0.00 0.00 0.00 0.01 0.00
0.20 0.29 0.41 0.51 0.58 0.62 0.71 0.84 1.00 1.16 1.25 1.34 1.38 1.36 1.33 1.25 1.13 0.94 0.74 0.60 0.50 0.38 0.27 0.18 0.13 0.10 0.08 0.05 0.04 0.03 0.02 0.02 0.02 0.02 0.01 0.01 0.01 0.01 0.01 0.01 0.01 0.02 0.02
0.22 0.30 0.36 0.40 0.44 0.46 0.55 0.65 0.74 0.82 0.91 0.96 0.97 0.92 0.85 0.78 0.70 0.59 0.48 0.36 0.29 0.23 0.18 0.15 0.11 0.09 0.07 0.05 0.05 0.04 0.03 0.02 0.02 0.02 0.02 0.02 0.02 0.02 0.02 0.02 0.03 0.03 0.04
0.25 0.29 0.30 0.32 0.30 0.30 0.38 0.43 0.49 0.60 0.66 0.67 0.62 0.53 0.50 0.44 0.40 0.35 0.31 0.25 0.20 0.18 0.16 0.15 0.13 0.10 0.08 0.07 0.06 0.06 0.05 0.05 0.04 0.04 0.04 0.04 0.04 0.05 0.04 0.04 0.04 0.03 0.03
0.28 0.26 0.25 0.24 0.21 0.24 0.27 0.31 0.35 0.38 0.40 0.38 0.35 0.32 0.30 0.29 0.27 0.25 0.23 0.20 0.20 0.19 0.18 0.16 0.14 0.12 0.10 0.09 0.08 0.07 0.07 0.07 0.06 0.06 0.05 0.05 0.05 0.06 0.05 0.05 0.04 0.04 0.05
0.35 0.31 0.29 0.26 0.25 0.25 0.26 0.25 0.25 0.24 0.24 0.23 0.24 0.23 0.24 0.24 0.25 0.26 0.26 0.24 0.23 0.22 0.20 0.19 0.17 0.16 0.14 0.12 0.11 0.09 0.08 0.07 0.05 0.05 0.04 0.03 0.03 0.04 0.04 0.04 0.04 0.04 0.04
0.37 0.39 0.42 0.41 0.34 0.27 0.25 0.24 0.24 0.21 0.20 0.19 0.19 0.19 0.19 0.21 0.22 0.22 0.23 0.23 0.23 0.24 0.25 0.23 0.20 0.17 0.14 0.11 0.08 0.06 0.04 0.03 0.03 0.03 0.02 0.02 0.03 0.04 0.06 0.05 0.06 0.07 0.09
0.45 0.50 0.52 0.46 0.40 0.36 0.33 0.29 0.29 0.26 0.24 0.24 0.25 0.24 0.24 0.24 0.25 0.26 0.27 0.27 0.25 0.22 0.19 0.15 0.12 0.09 0.06 0.04 0.03 0.02 0.01 0.01 0.01 0.01 0.01 0.01 0.03 0.04 0.05 0.06 0.08 0.12 0.15
0.63 0.60 0.58 0.55 0.52 0.49 0.45 0.41 0.38 0.36 0.35 0.36 0.37 0.37 0.37 0.36 0.34 0.30 0.26 0.21 0.17 0.13 0.09 0.06 0.05 0.04 0.02 0.02 0.01 0.01 0.00 0.01 0.01 0.02 0.02 0.02 0.02 0.02 0.02 0.05 0.10 0.16 0.19
0.75 0.72 0.69 0.66 0.63 0.62 0.58 0.55 0.52 0.49 0.47 0.47 0.48 0.47 0.43 0.38 0.30 0.20 0.14 0.10 0.08 0.06 0.05 0.04 0.03 0.03 0.01 0.00 0.00 0.00 0.00 0.01 0.02 0.03 0.03 0.03 0.01 0.03 0.04 0.05 0.07 0.07 0.08
0.75 0.74 0.76 0.77 0.73 0.68 0.63 0.60 0.57 0.53 0.50 0.49 0.47 0.41 0.34 0.26 0.17 0.10 0.07 0.06 0.05 0.04 0.03 0.02 0.02 0.03 0.01 0.00 0.00 0.00 0.00 0.01 0.02 0.03 0.03 0.04 0.04 0.05 0.05 0.04 0.04 0.05 0.07
0.80 0.81 0.81 0.75 0.69 0.62 0.58 0.57 0.57 0.53 0.47 0.41 0.33 0.23 0.16 0.11 0.07 0.05 0.04 0.04 0.03 0.02 0.01 0.01 0.01 0.03 0.04 0.01 0.00 0.00 0.00 0.01 0.02 0.02 0.02 0.03 0.05 0.07 0.07 0.05 0.06 0.08 0.10
0.59 0.56 0.52 0.48 0.46 0.45 0.44 0.41 0.38 0.32 0.26 0.18 0.12 0.08 0.06 0.04 0.04 0.03 0.03 0.02 0.02 0.02 0.01 0.01 0.01 0.03 0.05 0.01 0.00 0.00 0.00 0.01 0.01 0.01 0.02 0.04 0.06 0.05 0.05 0.04 0.09 0.15 0.14
0.36 0.32 0.29 0.30 0.31 0.29 0.26 0.22 0.18 0.14 0.09 0.06 0.04 0.03 0.03 0.02 0.02 0.02 0.02 0.02 0.02 0.03 0.03 0.03 0.03 0.03 0.03 0.01 0.00 0.00 0.00 0.01 0.01 0.03 0.05 0.09 0.07 0.05 0.05 0.06 0.11 0.16 0.15
0.18 0.16 0.16 0.16 0.14 0.12 0.10 0.09 0.08 0.05 0.03 0.02 0.02 0.02 0.01 0.01 0.01 0.02 0.02 0.02 0.03 0.04 0.05 0.04 0.04 0.03 0.03 0.02 0.00 0.00 0.00 0.00 0.02 0.06 0.09 0.11 0.08 0.07 0.09 0.10 0.14 0.16 0.22
0.09 0.09 0.08 0.07 0.08 0.07 0.07 0.06 0.05 0.04 0.04 0.05 0.04 0.03 0.02 0.01 0.01 0.02 0.03 0.04 0.05 0.04 0.04 0.04 0.04 0.04 0.04 0.03 0.00 0.00 0.00 0.01 0.03 0.07 0.09 0.11 0.12 0.14 0.21 0.21 0.21 0.26 0.35
0.06 0.06 0.06 0.07 0.08 0.07 0.08 0.09 0.08 0.08 0.10 0.11 0.08 0.05 0.04 0.04 0.04 0.04 0.04 0.05 0.06 0.04 0.04 0.05 0.05 0.05 0.05 0.03 0.02 0.01 0.02 0.03 0.05 0.07 0.11 0.18 0.24 0.27 0.32 0.35 0.39 0.40 0.37
0.06 0.06 0.07 0.07 0.06 0.06 0.07 0.08 0.09 0.11 0.14 0.13 0.08 0.05 0.04 0.04 0.05 0.06 0.05 0.03 0.04 0.01 0.02 0.03 0.03 0.03 0.04 0.02 0.02 0.01 0.01 0.02 0.04 0.06 0.13 0.21 0.26 0.31 0.32 0.35 0.39 0.41 0.37
0.05 0.05 0.05 0.04 0.03 0.03 0.03 0.04 0.07 0.08 0.09 0.10 0.06 0.03 0.03 0.03 0.04 0.07 0.08 0.03 0.01 0.00 0.00 0.00 0.01 0.02 0.02 0.02 0.02 0.01 0.02 0.04 0.06 0.11 0.18 0.21 0.24 0.29 0.30 0.30 0.33 0.36 0.35